Hourly Weather Bolshoe Babino

Today, 24 July, Saturday

Time Temperature Precipitation Wind Pressure Humidity
00:00 +15°C° 0 mm 2 mps 743 mmHg 91%
01:00 +14°C° 0 mm 2 mps 743 mmHg 91%
02:00 +14°C° 0 mm 1 mps 744 mmHg 90%
03:00 +14°C° 0 mm 1 mps 744 mmHg 90%
04:00 +14°C° 0 mm 1 mps 744 mmHg 89%
05:00 +14°C° 0 mm 1 mps 744 mmHg 89%
06:00 +15°C° 0 mm 1 mps 744 mmHg 83%
07:00 +18°C° 0 mm 1 mps 744 mmHg 76%
08:00 +20°C° 0 mm 1 mps 745 mmHg 70%
09:00 +21°C° 0 mm 1 mps 745 mmHg 63%
10:00 +23°C° 0 mm 1 mps 745 mmHg 56%
11:00 +24°C° 0 mm 1 mps 745 mmHg 49%
12:00 +24°C° 0 mm 1 mps 745 mmHg 48%
13:00 +25°C° 0 mm 1 mps 745 mmHg 46%
14:00 +25°C° 0 mm 1 mps 745 mmHg 44%
15:00 +25°C° 0 mm 1 mps 746 mmHg 46%
16:00 +24°C° 0 mm 1 mps 746 mmHg 48%
17:00 +24°C° 0 mm 2 mps 746 mmHg 50%
18:00 +23°C° 0 mm 1 mps 746 mmHg 53%
19:00 +22°C° 0 mm 1 mps 746 mmHg 56%
20:00 +21°C° 0 mm 1 mps 746 mmHg 59%
21:00 +20°C° 0 mm 1 mps 747 mmHg 60%
22:00 +19°C° 0 mm 2 mps 747 mmHg 61%
23:00 +18°C° 0 mm 2 mps 747 mmHg 61%

Tomorrow, 25 July, Sunday

Time Temperature Precipitation Wind Pressure Humidity
00:00 +18°C° 0 mm 2 mps 747 mmHg 63%
01:00 +17°C° 0 mm 2 mps 747 mmHg 65%
02:00 +18°C° 0 mm 1 mps 748 mmHg 67%
03:00 +16°C° 0 mm 1 mps 748 mmHg 69%
04:00 +16°C° 0 mm 1 mps 748 mmHg 71%
05:00 +16°C° 0 mm 2 mps 748 mmHg 74%
06:00 +17°C° 0 mm 2 mps 748 mmHg 69%
07:00 +19°C° 0 mm 2 mps 748 mmHg 64%
08:00 +21°C° 0 mm 2 mps 749 mmHg 60%
09:00 +23°C° 0 mm 2 mps 749 mmHg 54%
10:00 +25°C° 0 mm 2 mps 749 mmHg 48%
11:00 +26°C° 0 mm 3 mps 749 mmHg 43%
12:00 +27°C° 0 mm 3 mps 749 mmHg 41%
13:00 +27°C° 0 mm 2 mps 749 mmHg 39%
14:00 +28°C° 0 mm 2 mps 749 mmHg 37%
15:00 +27°C° 0 mm 2 mps 749 mmHg 42%
16:00 +26°C° 0 mm 2 mps 749 mmHg 46%
17:00 +26°C° 0 mm 2 mps 749 mmHg 50%
18:00 +24°C° 0 mm 2 mps 749 mmHg 56%
19:00 +23°C° 0 mm 2 mps 749 mmHg 61%
20:00 +21°C° 0 mm 2 mps 749 mmHg 66%
21:00 +20°C° 0 mm 2 mps 749 mmHg 68%
22:00 +20°C° 0 mm 2 mps 750 mmHg 69%
23:00 +20°C° 0 mm 2 mps 750 mmHg 70%

Day after tomorrow, 26 July, Monday

Time Temperature Precipitation Wind Pressure Humidity
00:00 +19°C° 0 mm 2 mps 750 mmHg 71%
01:00 +19°C° 0 mm 2 mps 750 mmHg 73%
02:00 +19°C° 0 mm 2 mps 750 mmHg 75%
03:00 +18°C° 0 mm 2 mps 750 mmHg 76%
04:00 +18°C° 0 mm 2 mps 750 mmHg 78%
05:00 +18°C° 0 mm 2 mps 750 mmHg 79%
06:00 +19°C° 0 mm 2 mps 750 mmHg 75%
07:00 +21°C° 0 mm 2 mps 751 mmHg 71%
08:00 +23°C° 0 mm 2 mps 751 mmHg 67%
09:00 +25°C° 0 mm 2 mps 751 mmHg 61%
10:00 +26°C° 0 mm 2 mps 751 mmHg 55%
11:00 +27°C° 0 mm 2 mps 751 mmHg 50%
12:00 +28°C° 0 mm 2 mps 751 mmHg 49%
13:00 +28°C° 0 mm 2 mps 751 mmHg 48%
14:00 +28°C° 0 mm 2 mps 750 mmHg 48%
15:00 +27°C° 0 mm 2 mps 750 mmHg 52%
16:00 +26°C° 0 mm 2 mps 750 mmHg 55%
17:00 +25°C° 0 mm 3 mps 750 mmHg 59%
18:00 +24°C° 0 mm 2 mps 750 mmHg 63%
19:00 +23°C° 0 mm 2 mps 750 mmHg 67%
20:00 +21°C° 0 mm 2 mps 750 mmHg 72%
21:00 +20°C° 0 mm 2 mps 750 mmHg 72%
22:00 +20°C° 0 mm 2 mps 750 mmHg 73%
23:00 +19°C° 0 mm 2 mps 750 mmHg 73%

27 July, Tuesday

Time Temperature Precipitation Wind Pressure Humidity
00:00 +19°C° 0 mm 2 mps 750 mmHg 77%
01:00 +18°C° 0 mm 2 mps 750 mmHg 80%
02:00 +18°C° 0 mm 2 mps 750 mmHg 84%
03:00 +18°C° 0 mm 2 mps 750 mmHg 85%
04:00 +17°C° 0 mm 2 mps 750 mmHg 85%
05:00 +17°C° 0 mm 2 mps 750 mmHg 86%
06:00 +19°C° 0 mm 2 mps 750 mmHg 78%
07:00 +21°C° 0 mm 2 mps 750 mmHg 71%
08:00 +24°C° 0 mm 3 mps 750 mmHg 63%
09:00 +26°C° 0 mm 3 mps 750 mmHg 57%
10:00 +27°C° 0 mm 3 mps 750 mmHg 52%
11:00 +29°C° 0 mm 3 mps 750 mmHg 47%
12:00 +29°C° 0 mm 3 mps 750 mmHg 44%
13:00 +30°C° 0 mm 3 mps 749 mmHg 41%
14:00 +30°C° 0 mm 3 mps 749 mmHg 39%
15:00 +29°C° 0 mm 3 mps 749 mmHg 43%
16:00 +29°C° 0 mm 2 mps 748 mmHg 47%
17:00 +28°C° 0 mm 2 mps 748 mmHg 50%
18:00 +27°C° 0 mm 2 mps 748 mmHg 54%
19:00 +25°C° 0 mm 2 mps 748 mmHg 58%
20:00 +24°C° 0 mm 3 mps 747 mmHg 61%
21:00 +24°C° 0 mm 3 mps 747 mmHg 60%
22:00 +22°C° 0 mm 3 mps 747 mmHg 58%
23:00 +22°C° 0 mm 3 mps 747 mmHg 56%

28 July, Wednesday

Time Temperature Precipitation Wind Pressure Humidity
00:00 +22°C° 0 mm 3 mps 747 mmHg 59%
01:00 +21°C° 0 mm 3 mps 747 mmHg 62%
02:00 +20°C° 0 mm 3 mps 746 mmHg 64%
03:00 +20°C° 0.1 mm 3 mps 746 mmHg 66%
04:00 +20°C° 0.1 mm 3 mps 746 mmHg 69%
05:00 +20°C° 0.1 mm 3 mps 746 mmHg 71%
06:00 +20°C° 0 mm 3 mps 745 mmHg 70%
07:00 +21°C° 0 mm 4 mps 745 mmHg 69%
08:00 +22°C° 0 mm 5 mps 745 mmHg 68%
09:00 +23°C° 0.1 mm 5 mps 745 mmHg 69%
10:00 +23°C° 0.1 mm 5 mps 745 mmHg 70%
11:00 +25°C° 0.1 mm 5 mps 745 mmHg 72%
12:00 +22°C° 1 mm 5 mps 744 mmHg 79%
13:00 +21°C° 1 mm 5 mps 744 mmHg 87%
14:00 +20°C° 1 mm 5 mps 744 mmHg 94%
15:00 +20°C° 0.4 mm 5 mps 744 mmHg 95%
16:00 +19°C° 0.4 mm 4 mps 744 mmHg 95%
17:00 +19°C° 0.4 mm 4 mps 743 mmHg 96%
18:00 +19°C° 0 mm 4 mps 743 mmHg 96%
19:00 +19°C° 0 mm 3 mps 743 mmHg 97%
20:00 +19°C° 0 mm 3 mps 743 mmHg 97%
21:00 +19°C° 0 mm 2 mps 743 mmHg 97%
22:00 +19°C° 0 mm 2 mps 743 mmHg 97%
23:00 +20°C° 0 mm 1 mps 742 mmHg 97%

29 July, Thursday

Time Temperature Precipitation Wind Pressure Humidity
00:00 +20°C° 0 mm 1 mps 742 mmHg 97%
01:00 +18°C° 0 mm 2 mps 742 mmHg 96%
02:00 +18°C° 0 mm 2 mps 742 mmHg 96%
03:00 +18°C° 0 mm 2 mps 742 mmHg 96%
04:00 +18°C° 0 mm 2 mps 742 mmHg 96%
05:00 +18°C° 0 mm 2 mps 742 mmHg 96%
06:00 +19°C° 0 mm 2 mps 742 mmHg 90%
07:00 +21°C° 0 mm 3 mps 742 mmHg 85%
08:00 +22°C° 0 mm 3 mps 742 mmHg 80%
09:00 +25°C° 0 mm 3 mps 742 mmHg 69%
10:00 +27°C° 0 mm 4 mps 742 mmHg 58%
11:00 +29°C° 0 mm 4 mps 742 mmHg 47%
12:00 +29°C° 0 mm 4 mps 742 mmHg 47%
13:00 +29°C° 0 mm 4 mps 742 mmHg 48%
14:00 +30°C° 0 mm 4 mps 742 mmHg 48%
15:00 +29°C° 0 mm 4 mps 742 mmHg 52%
16:00 +28°C° 0 mm 4 mps 742 mmHg 55%
17:00 +28°C° 0 mm 4 mps 742 mmHg 59%
18:00 +26°C° 0 mm 3 mps 742 mmHg 63%
19:00 +25°C° 0 mm 3 mps 742 mmHg 66%
20:00 +22°C° 0 mm 3 mps 742 mmHg 70%
21:00 +21°C° 0 mm 3 mps 742 mmHg 75%
22:00 +20°C° 0 mm 3 mps 743 mmHg 81%
23:00 +19°C° 0 mm 3 mps 743 mmHg 86%
Show more

We Need Your Consent

Meteoprog and our Service Providers may store and access personal data such as cookies, device identifiers or other similar technologies on your device and process such data to personalise content and ads, as well as provide social media features and to analyse the traffic.

  • Store and/or access information on your device

    Cookies, device identifiers or other information can be stored or accessed on your device for the purposes indicated above.

  • Personalised ads and content, ad and content measurement, audience insights, and products development

    Ads and content can be personalised based on a profile. More data can be added to better personalise ads and content. Ad and content performance can be measured. Insights about the audience who saw the ads and content can be derived. Such data can be used to develop or improve user’s experience, systems and software.

By clicking ‘I Agree’ you will allow the use of indicated cookies, device identifiers, web beacons or other similar technologies. Your settings can be changed in the browser on your device.

For certain purposes, legitimate interests may be relied on, rather than consent. You can read more about this in our Privacy and Cookie Policy.